Weather History for Spencer, IA

Change the Weather History Date:

Wednesday, March 26, 2014

  Actual Average Record
Temperature  
Mean Temperature 39 °F -  
Max Temperature 59 °F 45 °F 82 °F (2007)
Min Temperature 19 °F 27 °F 10 °F (2001)
Degree Days  
Heating Degree Days 26    
Moisture  
Dew Point 22 °F    
Average Humidity 52    
Maximum Humidity 76    
Minimum Humidity 32    
Precipitation  
Precipitation 0.00 in - - ()
Sea Level Pressure  
Sea Level Pressure 29.81 in    
Wind  
Wind Speed 18 mph (SSE)    
Max Wind Speed 36 mph    
Max Gust Speed 50 mph    
Visibility 10 miles    
Events      
Averages and records for this station are not official NWS values.
T = Trace of Precipitation, MM = Missing Value Source: NWS Daily Summary

Daily Weather History Graph

Daily Weather History Graph

Search for Another Location

Airport:

Trip Planner

Search our weather history database for the weather conditions in past years. The results will help you decide how hot, cold, wet, or windy it might be!

Date:

Astronomy

Mar. 26, 2014 Rise Set
Actual Time 7:13 AM CDT 7:40 PM CDT
Civil Twilight 6:44 AM CDT 8:08 PM CDT
Nautical Twilight 6:11 AM CDT 8:42 PM CDT
Astronomical Twilight 5:36 AM CDT 9:17 PM CDT
Moon 4:29 AM CDT 3:13 PM CDT
Length of Visible Light 13h 23m
Length of Day
12h 26m
Waning Crescent, 21% of the Moon is Illuminated
Mar 26
Waning Crescent
Mar 30
New
Apr 7
First Quarter
Apr 15
Full
Apr 22
Last Quarter

Hourly Weather History & Observations

Time (CDT) Temp. Windchill Dew Point Humidity Pressure Visibility Wind Dir Wind Speed Gust Speed Precip Events Conditions
12:53 AM 19.0 °F 11.1 °F 10.9 °F 71% 30.17 in 10.0 mi SSE 5.8 mph - N/A   Clear
1:53 AM 19.0 °F 10.0 °F 10.0 °F 68% 30.16 in 10.0 mi SSE 6.9 mph - N/A   Clear
2:53 AM 19.9 °F 9.3 °F 10.0 °F 65% 30.14 in 10.0 mi SE 9.2 mph - N/A   Clear
3:53 AM 21.0 °F 9.9 °F 10.0 °F 63% 30.12 in 10.0 mi SSE 10.4 mph - N/A   Partly Cloudy
4:53 AM 21.9 °F 11.7 °F 9.0 °F 58% 30.09 in 10.0 mi SSE 9.2 mph - N/A   Partly Cloudy
5:53 AM 23.0 °F 10.6 °F 8.1 °F 53% 30.06 in 10.0 mi SSE 13.8 mph - N/A   Clear
6:53 AM 21.9 °F 8.7 °F 9.0 °F 58% 30.04 in 10.0 mi SSE 15.0 mph - N/A   Clear
7:53 AM 23.0 °F 10.6 °F 10.0 °F 58% 30.02 in 10.0 mi SSE 13.8 mph - N/A   Clear
8:53 AM 28.9 °F 15.8 °F 12.0 °F 49% 29.99 in 10.0 mi South 20.7 mph 31.1 mph N/A   Clear
9:53 AM 34.0 °F 21.5 °F 14.0 °F 44% 29.94 in 10.0 mi SSE 24.2 mph 33.4 mph N/A   Clear
10:53 AM 39.0 °F 27.4 °F 17.1 °F 41% 29.89 in 10.0 mi SSE 28.8 mph 39.1 mph N/A   Clear
11:53 AM 45.0 °F 35.2 °F 19.9 °F 37% 29.85 in 10.0 mi South 29.9 mph 40.3 mph N/A   Clear
12:53 PM 48.9 °F - 23.0 °F 36% 29.78 in 10.0 mi South 35.7 mph 41.4 mph N/A   Clear
1:53 PM 53.1 °F - 25.0 °F 34% 29.73 in 10.0 mi South 31.1 mph 42.6 mph N/A   Clear
2:53 PM 55.9 °F - 27.0 °F 33% 29.67 in 10.0 mi South 29.9 mph 41.4 mph N/A   Clear
3:53 PM 57.9 °F - 28.0 °F 32% 29.62 in 10.0 mi South 28.8 mph 49.5 mph N/A   Clear
4:53 PM 59.0 °F - 28.9 °F 32% 29.60 in 10.0 mi South 34.5 mph 46.0 mph N/A   Clear
5:53 PM 57.9 °F - 30.0 °F 35% 29.56 in 10.0 mi South 31.1 mph 42.6 mph N/A   Mostly Cloudy
6:53 PM 55.9 °F - 33.1 °F 42% 29.55 in 10.0 mi South 27.6 mph 36.8 mph N/A   Overcast
7:53 PM 54.0 °F - 37.0 °F 53% 29.54 in 10.0 mi South 24.2 mph 38.0 mph N/A   Overcast
8:53 PM 51.1 °F - 37.0 °F 59% 29.54 in 10.0 mi South 27.6 mph 39.1 mph N/A   Overcast
9:44 PM 48.9 °F - 37.9 °F 66% 29.53 in 10.0 mi South 26.5 mph 42.6 mph N/A   Overcast
9:53 PM 48.9 °F - 37.9 °F 66% 29.55 in 10.0 mi South 29.9 mph 38.0 mph N/A   Overcast
10:53 PM 46.9 °F - 37.9 °F 71% 29.54 in 10.0 mi South 31.1 mph 40.3 mph N/A   Overcast
11:53 PM 45.0 °F 35.6 °F 37.9 °F 76% 29.53 in 10.0 mi South 27.6 mph 33.4 mph N/A   Overcast